Flag for Russia Weather past 2 weeks in Nizhny Novgorod, Russia

Now
70 °F

Sunny.


Feels Like: 70 °F
Forecast: 51 / 80 °F
Wind: 3 mph from Northeast

Location: Nizhny Novgorod/Strigino

Current Time: Aug 20, 2014 at 10:00:28 AM

Latest Report: Aug 20, 2014 at 9:30 AM


Visibility: 10 mi

Pressure: 30.01 "Hg

Humidity: 60%

Dew point: 55 °F

Location of Nizhny NovgorodLocation

Historic Weather in Nizhny Novgorod — Graph

°F

Nizhny Novgorod temperature yesterday

Maximum temperature yesterday: 75 °F (at 2:00 PM)
Minimum temperature yesterday: 48 °F (at 5:30 AM)
Average temperature yesterday: 64 °F

Past Weeks' High & Low Weather Summary

 TemperatureHumidityPressure
High93 °F (Aug 15, 5:00 PM)100% (Aug 6, 5:00 AM)30.04 "Hg (Aug 6, 5:00 AM)
Low48 °F (Aug 19, 5:30 AM)30% (Aug 15, 5:00 PM)29.62 "Hg (Aug 15, 6:00 PM)
Average69 °F74%29.85 "Hg
* Reported Aug 5 8:00 AM — Aug 20 8:30 AM, Nizhny Novgorod, Weather by CustomWeather, © 2014

Note: Actual official high and low records may vary slightly from our data, if they occured in-between our weather recording intervals... More about our weather records

Advertising

Nizhny Novgorod weather history for previous 24 hours

 ConditionsComfort  
Time TempWeatherWind HumidityBarometerVisibility
8:30 AM
Aug 20
68 °FScattered clouds.No wind73%30.01 "Hg6 mi
8:00 AM66 °FPartly sunny.No wind78%29.98 "Hg6 mi
7:30 AM64 °FPartly sunny.No wind88%29.98 "Hg5 mi
7:00 AM61 °FPartly sunny.No wind94%29.98 "Hg5 mi
6:30 AM59 °FPartly cloudy.No wind94%29.98 "Hg4 mi
6:00 AM59 °FPartly cloudy.No wind94%29.98 "Hg4 mi
5:30 AM59 °FPartly cloudy.No wind94%29.98 "Hg4 mi
5:00 AM59 °FPartly cloudy.No wind94%29.98 "Hg4 mi
4:30 AM59 °FPartly cloudy.No wind94%29.98 "Hg4 mi
4:00 AM59 °FPartly cloudy.1 mph94%29.98 "Hg4 mi
3:30 AM59 °FPartly cloudy.1 mph94%29.98 "Hg4 mi
3:00 AM59 °FPartly cloudy.No wind94%29.98 "Hg4 mi
2:30 AM59 °FPartly cloudy.1 mph94%29.98 "Hg4 mi
2:00 AM61 °FPartly cloudy.No wind88%29.98 "Hg4 mi
1:30 AM61 °FPartly cloudy.1 mph94%29.98 "Hg5 mi
1:00 AM61 °FPartly cloudy.No wind94%29.98 "Hg5 mi
12:30 AM64 °FPartly cloudy.1 mph78%29.98 "Hg6 mi
12:00 AM64 °FPartly cloudy.1 mph78%29.98 "Hg5 mi
11:30 PM
Aug 19
66 °FPartly cloudy.3 mph73%29.98 "Hg5 mi
11:00 PM66 °FPartly cloudy.3 mph73%29.98 "Hg6 mi
10:30 PM66 °FPartly cloudy.3 mph73%29.98 "Hg6 mi
10:00 PM66 °FPassing clouds.3 mph73%29.98 "Hg6 mi
9:30 PM66 °FPartly sunny.6 mph73%29.98 "Hg5 mi
9:00 PM66 °FPassing clouds.6 mph68%29.98 "Hg6 mi
8:30 PM64 °FScattered clouds.1 mph78%29.98 "HgN/A
8:00 PM72 °FScattered clouds.3 mph57%29.98 "HgN/A
7:30 PM73 °FPartly sunny.6 mph50%29.98 "HgN/A
7:00 PM73 °FPartly sunny.3 mph50%29.98 "HgN/A
6:30 PM73 °FBroken clouds.6 mph50%29.98 "HgN/A
6:00 PM73 °FBroken clouds.6 mph47%29.98 "HgN/A
5:30 PM73 °FBroken clouds.6 mph47%29.98 "HgN/A
5:00 PM73 °FBroken clouds.6 mph50%29.98 "Hg6 mi
4:30 PM75 °FBroken clouds.3 mph47%29.98 "HgN/A
4:00 PM73 °FBroken clouds.8 mph47%30.01 "HgN/A
3:30 PM73 °FPartly sunny.8 mph50%30.01 "HgN/A
3:00 PM73 °FPartly sunny.6 mph47%30.01 "HgN/A
2:30 PM75 °FPartly sunny.6 mph44%30.01 "HgN/A
2:00 PM75 °FPartly sunny.6 mph44%30.01 "HgN/A
1:30 PM73 °FPartly sunny.3 mph47%30.01 "HgN/A
1:00 PM73 °FPartly sunny.6 mph47%30.01 "HgN/A
12:30 PM73 °FPartly sunny.6 mph50%30.01 "HgN/A
12:00 PM73 °FBroken clouds.6 mph50%30.04 "Hg6 mi
11:30 AM72 °FPartly sunny.6 mph57%30.01 "HgN/A
11:00 AM70 °FPartly sunny.6 mph57%30.01 "HgN/A
10:30 AM70 °FPartly sunny.3 mph64%30.01 "HgN/A
10:00 AM68 °FPartly sunny.3 mph69%30.01 "Hg6 mi
Weather by CustomWeather, © 2014

See weather overviewHow to use our weather pages